Location: ?????????
(38.0736°N, 23.2119°E)
Time: 10:56:35
(UTC+00:00)

Cosmos 1697 Rocket - Pass Details

Date: 18 April 2024
Orbit: 831 x 843 km, 71.0° (Epoch: 18 May)

Event Time Altitude Azimuth Distance (km) Brightness Sun altitude
Exits shadow 20:19:05 52° 298° (WNW) 1,040 3.3 -32.4°
Drops below altitude 10° 20:24:34 10° 13° (NNE) 2,469 5.5 -33.1°
Sets 20:27:06 0° 18° (NNE) 3,407 6.3 -33.4°
